Wormit, United Kingdom

11:40 AM GMT on February 28, 2017 (GMT +0000)
Dundee

Weather History for EGPN - November, 2012

Change the Weather History Date:

Wednesday, November 14, 2012

  Actual Average Record
Temperature  
Mean Temperature 42 °F -  
Max Temperature 46 °F 45 °F 64 °F (2008)
Min Temperature 39 °F 38 °F 33 °F (2001)
Degree Days  
Heating Degree Days 22    
Moisture  
Dew Point 43 °F    
Average Humidity 93    
Maximum Humidity 100    
Minimum Humidity 87    
Precipitation  
Precipitation 0.00 in - - ()
Sea Level Pressure  
Sea Level Pressure 30.16 in    
Wind  
Wind Speed 2 mph ()    
Max Wind Speed 7 mph    
Max Gust Speed -    
Visibility 5.7 miles    
Events      
Averages and records for this station are not official NWS values.
T = Trace of Precipitation, MM = Missing Value Source: Averaged Metar Reports

Daily Weather History Graph

Daily Weather History Graph

Search for Another Location

Airport or City:

Trip Planner

Search our weather history database for the weather conditions in past years. The results will help you decide how hot, cold, wet, or windy it might be!

Date:

Astronomy

Nov. 14, 2012 Rise Set
Actual Time 7:49 AM GMT 4:03 PM GMT
Civil Twilight 7:06 AM GMT 4:45 PM GMT
Nautical Twilight 6:20 AM GMT 5:32 PM GMT
Astronomical Twilight 5:35 AM GMT 6:16 PM GMT
Moon 8:32 AM GMT (11/14) 4:25 PM GMT (11/14)
Length of Visible Light 9h 39m
Length of Day
8h 13m
New Moon, 1% of the Moon is Illuminated
Nov 14
New Moon
Nov 20
First Quarter
Nov 28
Full
Dec 6
Last Quarter
Dec 13
New

Hourly Weather History & Observations

Time (GMT) Temp. Windchill Dew Point Humidity Pressure Visibility Wind Dir Wind Speed Gust Speed Precip Events Conditions
8:20 AM 44.6 °F - 42.8 °F 93% 30.12 in 5.0 mi NW 1.2 mph - N/A   Drizzle
8:50 AM 44.6 °F - 44.6 °F 100% 30.15 in 5.0 mi Calm Calm - N/A   Drizzle
9:20 AM 44.6 °F - 42.8 °F 93% 30.15 in 4.3 mi WNW 1.2 mph - N/A   Drizzle
10:20 AM 46.4 °F - 44.6 °F 93% 30.15 in 4.3 mi West 1.2 mph - N/A   Mostly Cloudy
10:50 AM 44.6 °F - 42.8 °F 93% 30.15 in 5.6 mi Calm Calm - N/A   Mostly Cloudy
11:20 AM 44.6 °F - 42.8 °F 93% 30.15 in 5.6 mi Calm Calm - N/A   Mostly Cloudy
11:50 AM 46.4 °F - 44.6 °F 93% 30.15 in 5.6 mi Calm Calm - N/A   Mostly Cloudy
12:20 PM 46.4 °F - 44.6 °F 93% 30.15 in 6.2 mi SSW 2.3 mph - N/A   Mostly Cloudy
1:20 PM 46.4 °F - 44.6 °F 93% 30.15 in 6.2 mi West 2.3 mph - N/A   Mostly Cloudy
1:50 PM 46.4 °F 43.5 °F 44.6 °F 93% 30.15 in 6.2 mi West 5.8 mph - N/A   Mostly Cloudy
2:20 PM 46.4 °F 43.5 °F 44.6 °F 93% 30.15 in 6.2 mi West 5.8 mph - N/A   Mostly Cloudy
2:50 PM 46.4 °F 42.9 °F 44.6 °F 93% 30.15 in 6.2 mi West 6.9 mph - N/A   Mostly Cloudy
3:20 PM 46.4 °F 44.3 °F 44.6 °F 93% 30.15 in 6.2 mi WSW 4.6 mph - N/A   Mostly Cloudy
3:50 PM 46.4 °F - 44.6 °F 93% 30.15 in 6.2 mi WNW 2.3 mph - N/A   Mostly Cloudy
4:20 PM 46.4 °F - 44.6 °F 93% 30.15 in 6.2 mi WNW 2.3 mph - N/A   Mostly Cloudy
4:50 PM 46.4 °F - 44.6 °F 93% 30.15 in 6.2 mi NW 1.2 mph - N/A   Mostly Cloudy
5:20 PM 46.4 °F 44.3 °F 42.8 °F 87% 30.15 in - WNW 4.6 mph - N/A   Clear
5:50 PM 46.4 °F 44.3 °F 42.8 °F 87% 30.18 in - West 4.6 mph - N/A   Clear
6:20 PM 44.6 °F 43.1 °F 42.8 °F 93% 30.18 in - West 3.5 mph - N/A   Clear
6:50 PM 44.6 °F 43.1 °F 42.8 °F 93% 30.18 in - West 3.5 mph - N/A   Clear
7:20 PM 46.4 °F 44.3 °F 42.8 °F 87% 30.18 in - West 4.6 mph - N/A   Clear
7:50 PM 42.8 °F 40.1 °F 41.0 °F 93% 30.18 in - West 4.6 mph - N/A   Clear
8:20 PM 42.8 °F - 41.0 °F 93% 30.18 in - West 2.3 mph - N/A   Clear
8:50 PM 41.0 °F - 39.2 °F 93% 30.18 in - NW 2.3 mph - N/A   Clear
9:20 PM 39.2 °F 35.0 °F 39.2 °F 100% 30.21 in - West 5.8 mph - N/A   Clear
9:50 PM 41.0 °F 39.0 °F 41.0 °F 100% 30.21 in - WNW 3.5 mph - N/A   Clear